TAMU Turf Lab's Hourly Summary for Thursday, July 5, 2018
Hour Temp
(f)
RH
(%)
Solar Rad.
(MJ/m2)
Rainfall
(in)
Wind
(mph)
7/5/2018 12:00 AM 73 85 0 0 4.95
7/5/2018 1:00 AM 72 87 0 0 5.08
7/5/2018 2:00 AM 72 89 0 0 4.88
7/5/2018 3:00 AM 72 88 0 0 4.23
7/5/2018 4:00 AM 72 88 0 0 3.97
7/5/2018 5:00 AM 72 87 0 0 3.17
7/5/2018 6:00 AM 70 87 0 0 3.41
7/5/2018 7:00 AM 70 90 0.02 0 2.35
7/5/2018 8:00 AM 70 90 0.28 0 3.82
7/5/2018 9:00 AM 73 77 0.92 0 3.58
7/5/2018 10:00 AM 77 71 1.58 0 5.04
7/5/2018 11:00 AM 80 58 2.2 0 3.54
7/5/2018 12:00 PM 83 49 2.72 0 3.61
7/5/2018 1:00 PM 86 45 2.98 0 6.07
7/5/2018 2:00 PM 87 42 3.15 0 4.66
7/5/2018 3:00 PM 89 45 2.1 0 5.33
7/5/2018 4:00 PM 89 41 2.55 0 5.09
7/5/2018 5:00 PM 90 39 2.27 0 4.15
7/5/2018 6:00 PM 92 37 1.81 0 2.54
7/5/2018 7:00 PM 93 37 1.16 0 2.52
7/5/2018 8:00 PM 91 40 0.59 0 4.35
7/5/2018 9:00 PM 88 45 0.08 0 2.43
7/5/2018 10:00 PM 79 46 0 0.02 6.67
7/5/2018 11:00 PM 77 78 0 0.01 4.76
Data Summary 79 64 24.41 0.03 4.18